Location: Bartshausen
(51.8454°N, 9.8167°E)
Time: 23:23:20
(UTC+00:00)

Cosmos 2228 Rocket - Pass Details

Date: 08 November 2025
Orbit: 614 x 645 km, 82.5° (Epoch: 04 December)

Event Time Altitude Azimuth Distance (km) Brightness Sun altitude
Exits shadow 03:25:53 50° 94° (E) 789 3.8 -28.2°
Drops below altitude 10° 03:30:10 10° 20° (NNE) 2,000 6.0 -27.5°
Sets 03:32:27 0° 15° (NNE) 2,916 6.8 -27.1°
